Weather History for Erzincan, Turkey

Change the Weather History Date:

Saturday, December 8, 2012

  Actual Average Record
Temperature  
Mean Temperature 36 °F -  
Max Temperature 44 °F 38 °F - ()
Min Temperature 28 °F 24 °F - ()
Degree Days  
Heating Degree Days 29    
Moisture  
Dew Point 33 °F    
Average Humidity 88    
Maximum Humidity 100    
Minimum Humidity 70    
Precipitation  
Precipitation 0.01 in 0.04 in - ()
Sea Level Pressure  
Sea Level Pressure 30.00 in    
Wind  
Wind Speed 2 mph ()    
Max Wind Speed 13 mph    
Max Gust Speed -    
Visibility 6.4 miles    
Events Rain    
T = Trace of Precipitation, MM = Missing Value Source: Averaged Metar Reports

Daily Weather History Graph

Daily Weather History Graph

Search for Another Location

Airport:

Trip Planner

Search our weather history database for the weather conditions in past years. The results will help you decide how hot, cold, wet, or windy it might be!

Date:

Astronomy

Dec. 08, 2012 Rise Set
Actual Time 6:30 AM EET 3:57 PM EET
Civil Twilight 6:00 AM EET 4:27 PM EET
Nautical Twilight 5:26 AM EET 5:01 PM EET
Astronomical Twilight 4:53 AM EET 5:33 PM EET
Moon 12:32 AM EET (12/8) 12:14 PM EET (12/8)
Length of Visible Light 10h 27m
Length of Day
9h 26m
Waning Crescent, 31% of the Moon is Illuminated
Dec 8
Waning Crescent
Dec 13
New
Dec 20
First Quarter
Dec 28
Full
Jan 5
Last Quarter

Hourly Weather History & Observations

Time (EET) Temp. Windchill Dew Point Humidity Pressure Visibility Wind Dir Wind Speed Gust Speed Precip Events Conditions
12:50 AM 33.8 °F - 32.0 °F 93% 29.89 in 6.2 mi Calm Calm - N/A   Scattered Clouds
1:50 AM 35.6 °F - 33.8 °F 93% 29.89 in 6.2 mi Calm Calm - N/A   Scattered Clouds
2:00 AM 35 °F - 33 °F 91%  in 12 mi Calm Calm - -   Partly Cloudy
2:50 AM 33.8 °F - 33.8 °F 100% 29.89 in 6.2 mi Calm Calm - N/A   Scattered Clouds
3:50 AM 32.0 °F - 32.0 °F 100% 29.89 in 6.2 mi Calm Calm - N/A   Scattered Clouds
4:50 AM 32.0 °F - 32.0 °F 100% 29.89 in 6.2 mi NW 2.3 mph - N/A   Scattered Clouds
5:50 AM 33.8 °F - 32.0 °F 93% 29.89 in 6.2 mi Calm Calm - N/A   Scattered Clouds
6:50 AM 32.0 °F - 32.0 °F 100% 29.92 in 6.2 mi Variable 2.3 mph - N/A   Mostly Cloudy
7:50 AM 33.8 °F - 33.8 °F 100% 29.95 in 6.2 mi Calm Calm - N/A   Mostly Cloudy
8:00 AM 34 °F - 33 °F 97%  in 6 mi Calm Calm - -   Partly Cloudy
8:50 AM 37.4 °F - 33.8 °F 87% 29.95 in 6.2 mi Calm Calm - N/A   Mostly Cloudy
9:50 AM 39.2 °F - 35.6 °F 87% 29.98 in 6.2 mi Variable 2.3 mph - N/A   Mostly Cloudy
10:50 AM 42.8 °F - 37.4 °F 81% 29.95 in 6.2 mi Variable 1.2 mph - N/A   Mostly Cloudy
11:50 AM 42.8 °F 40.1 °F 37.4 °F 81% 29.95 in 6.2 mi NNW 4.6 mph - N/A   Mostly Cloudy
12:50 PM 41.0 °F 33.9 °F 37.4 °F 87% 29.98 in 6.2 mi WNW 12.7 mph - N/A Rain Light Rain
1:50 PM 41.0 °F 35.8 °F 35.6 °F 81% 30.01 in 6.2 mi WNW 8.1 mph - N/A   Mostly Cloudy
2:00 PM 41 °F - 35 °F 73%  in 6 mi WNW 8.1 mph - - Rain Light Rain
2:50 PM 41.0 °F 34.7 °F 33.8 °F 76% 30.04 in 6.2 mi West 10.4 mph - N/A   Mostly Cloudy
3:50 PM 41.0 °F 35.2 °F 33.8 °F 76% 30.04 in 6.2 mi WNW 9.2 mph - N/A   Mostly Cloudy
4:50 PM 39.2 °F 34.2 °F 32.0 °F 75% 30.06 in 6.2 mi NW 6.9 mph - N/A   Mostly Cloudy
5:50 PM 37.4 °F 33.8 °F 32.0 °F 81% 30.09 in 6.2 mi NW 4.6 mph - N/A   Mostly Cloudy
6:50 PM 35.6 °F - 32.0 °F 87% 30.09 in 6.2 mi Variable 1.2 mph - N/A   Mostly Cloudy
7:50 PM 33.8 °F 29.6 °F 28.4 °F 81% 30.12 in 6.2 mi NW 4.6 mph - N/A   Scattered Clouds
8:00 PM 34 °F - 28 °F 70%  in 6 mi NW 4.6 mph - -   Partly Cloudy
8:50 PM 33.8 °F - 28.4 °F 81% 30.12 in 6.2 mi Variable 1.2 mph - N/A   Scattered Clouds
9:50 PM 30.2 °F - 28.4 °F 93% 30.15 in 6.2 mi Variable 1.2 mph - N/A   Scattered Clouds
10:50 PM 28.4 °F 23.3 °F 28.4 °F 100% 30.18 in 6.2 mi East 4.6 mph - N/A   Scattered Clouds
11:50 PM 30.2 °F - 28.4 °F 93% 30.18 in 6.2 mi Variable 1.2 mph - N/A   Scattered Clouds